Regional Weather Roundup
Issued by NWS State College, PA

Home | Current Version | Previous Version | Graphics & Text | Print | Product List | Glossary Off
Versions: 1 2 3 4 5 6 7 8 9 10 11 12 13 14 15 16 17 18 19 20 21 22 23 24 25 26 27 28 29 30 31 32 33 34 35 36 37 38 39 40 41 42 43 44 45 46 47 48 49 50

093
ASUS41 KCTP 060410
RWRCTP

REGIONAL WEATHER ROUNDUP
NATIONAL WEATHER SERVICE STATE COLLEGE PA
1100 PM EST MON DEC 05 2016

Note: "fair" indicates few or no clouds below 12,000 feet with no
significant weather and/or obstructions to visibility.

* = STATION THAT DOES NOT REPORT PRECIPITATION /E.G. RAIN...SNOW...ETC/
    THUNDER OR FOG.

PAZ002>004-007>009-013>016-020>023-029>032-060500-
WESTERN PENNSYLVANIA

CITY           SKY/WX    TMP DP  RH WIND       PRES   REMARKS
ERIE           CLOUDY    37  28  70 S5        30.10S
MEADVILLE      CLEAR     28  25  88 CALM      30.07F
FRANKLIN*        N/A     27  23  86 CALM      30.08F
NEW CASTLE     FAIR      25  23  92 CALM      30.09S
BEAVER COUNTY  NOT AVBL
BUTLER*        CLOUDY    27  21  80 NE3       30.09F
PITTSBURGH INT CLOUDY    35  28  75 E5        30.07S
PITTSBURGH     CLOUDY    33  25  72 NE5       30.06F
INDIANA*       CLEAR     28  28 100 CALM      30.11S
LATROBE        CLOUDY    28  28 100 CALM      30.09F
WASHINGTON CO* PTCLDY    27  23  86 CALM      30.06F
$$

PAZ004>006-010>012-017>019-024>028-033>037-041-042-045-046-049>053-060500-
CENTRAL PENNSYLVANIA

CITY           SKY/WX    TMP DP  RH WIND       PRES   REMARKS
BRADFORD       CLOUDY    31  29  92 CALM      30.05F
DUBOIS         PTCLDY    31  26  82 NE3       30.06F
CLEARFIELD     PTCLDY    29  28  96 CALM      30.10R
JOHNSTOWN      CLOUDY    31  27  85 E5        30.05R
ALTOONA        CLOUDY    30  26  85 SE3       30.10R
STATE COLLEGE  CLEAR     35  28  75 W3        30.11R
WILLIAMSPORT   CLOUDY    38  30  73 CALM      30.11S
SELINSGROVE    CLEAR     29  29 100 CALM      30.13R
FT INDIANTOWN  CLOUDY    37  29  74 VRB1      30.12R
CAPITAL CITY   PTCLDY    37  29  72 W5        30.13R
HARRISBURG     CLOUDY    37  32  82 N3        30.13R
YORK           PTCLDY    31  30  96 CALM      30.12R
$$

PAZ038>040-043-044-047-048-054-055-060>062-067>071-060500-
EASTERN PENNSYLVANIA

CITY           SKY/WX    TMP DP  RH WIND       PRES   REMARKS
SCRANTON       CLEAR     35  27  72 W3        30.09R
MOUNT POCONO   CLEAR     31  25  78 NW7       30.03S
ALLENTOWN      CLOUDY    36  28  73 W3        30.10S
QUAKERTOWN*    PTCLDY    32  28  86 S3        30.11R
READING        PTCLDY    35  29  78 S5        30.11R
LANCASTER      CLOUDY    34  30  85 W5        30.13R
COATESVILLE    CLOUDY    39  30  70 NW5       30.12R
POTTSTOWN      CLOUDY    34  29  82 NW5       30.12R
BLUE BELL      PTCLDY    32  32 100 CALM      30.10R
DOYLESTOWN     PTCLDY    39  30  70 CALM      30.09R
WILLOW GROVE   NOT AVBL
NORTH PHILA    CLOUDY    41  32  70 NW5       30.12R
PHILADELPHIA   MOCLDY    41  31  67 NW8       30.12R
$$




USA.gov is the U.S. government's official web portal to all federal, state and local government web resources and services.